Regional Weather Roundup
Issued by NWS

Home | Current Version | Previous Version | Graphics & Text | Print | Product List | Glossary On
Versions: 1 2 3 4 5 6 7 8 9 10 11 12 13 14 15 16 17 18 19 20 21 22 23 24 25 26 27 28 29 30 31 32 33 34 35 36 37 38 39 40 41 42 43 44 45 46 47 48 49 50
506
ASUS44 KLIX 260401
RWRLA
LOUISIANA WEATHER ROUNDUP
NATIONAL WEATHER SERVICE NEW ORLEANS LA
1000 PM CST SUN JAN 25 2015

NOTE: "FAIR" INDICATES FEW OR NO CLOUDS BELOW 12,000 FEET WITH NO
      SIGNIFICANT WEATHER AND/OR OBSTRUCTIONS TO VISIBILITY.
      SKY/WX - SKY CONDITION AND SIGNIFICANT WEATHER.
      TMP - AIR TEMPERATURE.    DP   - DEWPOINT TEMPERATURE.
      RH  - RELATIVE HUMIDITY.  PRES - PRESSURE.
      HX  - HEAT INDEX.         WCI  - WIND CHILL INDEX.

*  THESE STATIONS ARE NOT NWS OR FAA STATIONS AND ARE NOT UNDER
   NWS QUALITY CONTROL.

LAZ040-048-061>063-065-066-069-260500-
SOUTHEAST LOUISIANA

CITY           SKY/WX    TMP DP  RH WIND       PRES   REMARKS
N.O. AUDUBON     N/A     54  48  79 MISG        N/A
N.O. INTL ARPT PTCLDY    55  44  66 W15       29.97R
N.O. LAKEFRONT CLEAR     57  46  66 W18       29.96R
N.O. DOWNTOWN* FAIR     N/A N/A N/A SW5       29.96R
SLIDELL        CLEAR     55  43  63 VRB5      29.94R
BATON ROUGE    CLEAR     56  35  45 NW9       29.98R
BOOTHVILLE     CLEAR     57  49  74 W16       29.97R
BELLE CHASSE   CLEAR     53  43  68 W7        29.96R
BOGALUSA*        N/A     50  39  66 W3        29.94R
GALLIANO*      NOT AVBL
NEW ROADS*     NOT AVBL
GONZALES*      NOT AVBL
HAMMOND*       NOT AVBL
HOUMA*         CLEAR     52  47  83 W6        29.99R
PORT FOURCHON* CLEAR     57  50  77 W12G20    30.03R

$$

LAZ041-044-053-054-260500-
SOUTHWEST LOUISIANA

CITY           SKY/WX    TMP DP  RH WIND       PRES   REMARKS
LAKE CHARLES   CLEAR     57  29  34 NW14G21   30.06R
LAFAYETTE      CLEAR     54  39  57 NW9       30.03R
PATTERSON      CLEAR     52  45  76 W6        30.02R
SALT POINT       N/A     54  49  83 W8        30.01R
NEW IBERIA     CLEAR     55  43  63 NW10      30.03R
CHENAULT AIRPK CLEAR     55  30  38 NW12      30.06R

$$

LAZ027-028-260500-
CENTRAL LOUISIANA

CITY           SKY/WX    TMP DP  RH WIND       PRES   REMARKS
FORT POLK      CLEAR     54  29  37 NW12      30.06R
ALEXANDRIA INT CLEAR     55  30  38 W12       30.01R
ALEXANDRIA     CLEAR     55  30  38 NW8       30.02R

$$

LAZ001-002-260500-
NORTHWEST LOUISIANA

CITY           SKY/WX    TMP DP  RH WIND       PRES   REMARKS
SHREVEPORT     CLEAR     48  31  51 W7        30.07R
BARKSDALE AFB  CLEAR     46  32  58 NW6       30.07R
DTN SHREVEPORT CLEAR     50  31  48 NW6       30.07R

$$

LAZ014-016-260500-
NORTHEAST LOUISIANA

CITY           SKY/WX    TMP DP  RH WIND       PRES   REMARKS
MONROE         CLEAR     50  34  54 NW8       30.00R
TALLULAH       CLOUDY    54  36  50 NW9       29.97R

$$




USA.gov is the U.S. government's official web portal to all federal, state and local government web resources and services.